Location: Mt. Graham
(32.7020°N, 109.8880°W)
Time: 04:06:39
(UTC-07:00)

Tiangong 2 - Visible Passes

Search period start: 20 September 2017 00:00
Search period end: 30 September 2017 00:00
Orbit: 389 x 393 km, 42.8° (Epoch: 20 September)

Date Brightness Start Highest point End Pass type
(mag) Time Alt. Az. Time Alt. Az. Time Alt. Az.
20 Sep 3.1 20:00:28 10° W 20:02:58 23° SW 20:02:58 23° SW visible
21 Sep 1.9 19:02:40 10° WNW 19:05:44 46° SW 19:08:34 12° SE visible
22 Sep 4.1 19:44:17 10° SW 19:44:49 10° SW 19:45:23 10° SSW visible
23 Sep 3.5 18:45:06 10° W 18:47:33 20° SW 18:50:00 10° S visible
